カタログに戻る

STARLINK-37204

運用中通信VLEO
NORAD 68329·PAYLOAD·🇺🇸 United States

打ち上げ Mar 22, 2026 から Cape Canaveral Space Force Station

Loading…

次のパス (今後24時間)

TLE

最新Source: CelesTrak SupGP

元期: Sep 15, 2026, 03:42 UTC

1 68329C 26059J   26258.15465278  .00019506  00000+0  57663-3 0  2589
2 68329  53.1581 180.5109 0001315  78.6861 223.9201 15.34363453    10

AllMySatでSTARLINK-37204をリアルタイム追跡

Download on the App Store